Location: East Horndon
(51.5667°N, 0.3500°E)
Time: 10:06:07
(UTC+00:00)

FengYun 1-2 T - Pass Details

Date: 08 November 2025
Orbit: 845 x 879 km, 98.8° (Epoch: 11 December)

Event Time Altitude Azimuth Distance (km) Brightness Sun altitude
Rises 04:48:39 0° 16° (NNE) 3,438 7.6 -21.3°
Reaches altitude 10° 04:51:02 10° 18° (NNE) 2,502 6.8 -20.9°
Maximum altitude 04:56:36 78° 104° (ESE) 886 4.3 -20.0°
Drops below altitude 10° 05:02:11 10° 192° (SSW) 2,506 6.6 -19.2°
Sets 05:04:34 0° 194° (SSW) 3,445 7.3 -18.8°
